{"data":{"norad_id":54656,"intl_designator":"2022-166Q","name":"ONEWEB-0590","alt_names":[],"object_type":"PAYLOAD","status":"ACTIVE","operator":null,"country":"UK","launch_date":"2022-12-08","launch_site_code":"AFETR","launch_vehicle":null,"mission":null,"orbit_class":"UNKNOWN","rcs_meters":null,"size_class":null,"mass_kg":null,"dimensions":null,"purposes":["comms"],"wikipedia_slug":null,"has_3d_model":false,"image_url":null,"decayed_at":null,"tle_current":{"epoch":"2026-09-19T07:30:04.974048Z","epoch_age_seconds":124521,"freshness":"FRESH","line1":"1 54656U 22166Q   26262.31255757  .00000077  00000+0  15408-3 0  9990","line2":"2 54656  87.9289 225.2409 0001818  91.8031 268.3311 13.21824508183960","mean_motion":13.21824508,"eccentricity":0.0001818,"inclination_deg":87.9289,"raan_deg":225.2409,"arg_perigee_deg":91.8031,"mean_anomaly_deg":268.3311,"bstar":0.00015408,"rev_number":18396,"period_min":108.94033143468,"perigee_km":1176.3853922358,"apogee_km":1179.1327160411,"semimajor_km":7555.8960541384,"source":"CELESTRAK","updated_at":"2026-09-20T09:00:44.743957Z"}}}